St. Cloud, MN

12:44 PM CDT on June 25, 2018 (GMT -0500)
Saint Cloud Regional

Weather History for KSTC - October, 2017

Change the Weather History Date:

Sunday, October 15, 2017

  Actual Average Record
Temperature  
Mean Temperature 44 °F 46 °F  
Max Temperature 51 °F 57 °F 82 °F (1968)
Min Temperature 37 °F 35 °F 19 °F (1952)
Degree Days  
Heating Degree Days 21 19  
Month to date heating degree days 227 242  
Since 1 July heating degree days 406 528  
Cooling Degree Days 0 0  
Month to date cooling degree days 0 0  
Year to date cooling degree days 361 463  
Moisture  
Dew Point 39 °F    
Average Humidity 74    
Maximum Humidity 96    
Minimum Humidity 52    
Precipitation  
Precipitation 0.05 in 0.09 in 3.20 in (1899)
Month to date precipitation 4.27 1.39  
Year to date precipitation 28.13 24.43  
Snow  
Snow 0.00 in 0.00 in 1.40 in (1966)
Month to date snowfall 0.0 0.1  
Since 1 July snowfall 0.0 0.1  
Since 1 September snowfall 0.0 0.1  
Snow Depth 0.00 in    
Sea Level Pressure  
Sea Level Pressure 30.15 in    
Wind  
Wind Speed 7 mph (NW)    
Max Wind Speed 18 mph    
Max Gust Speed 23 mph    
Visibility 10 miles    
Events Rain    
T = Trace of Precipitation, MM = Missing Value Source: NWS Daily Summary

Daily Weather History Graph

Daily Weather History Graph

Search for Another Location

Airport or City:

Astronomy

Oct. 15, 2017 Rise Set
Actual Time 7:32 AM CDT 6:30 PM CDT
Civil Twilight 7:03 AM CDT 7:00 PM CDT
Nautical Twilight 6:28 AM CDT 7:34 PM CDT
Astronomical Twilight 5:54 AM CDT 8:08 PM CDT
Moon 2:48 AM CDT (10/15) 4:53 PM CDT (10/15)
Length of Visible Light 11h 56m
Length of Day
10h 57m
Waning Crescent, 17% of the Moon is Illuminated
Oct 15
Waning Crescent
Oct 19
New
Oct 27
First Quarter
Nov 4
Full
Nov 10
Last Quarter

Hourly Weather History & Observations

Time (CDT) Temp. Windchill Dew Point Humidity Pressure Visibility Wind Dir Wind Speed Gust Speed Precip Events Conditions
12:16 AM 42.1 °F 34.5 °F 39.9 °F 92% 29.97 in 10.0 mi North 15.0 mph 25.3 mph 0.00 in Rain Light Rain
12:32 AM 41.0 °F 32.5 °F 39.9 °F 96% 29.98 in 10.0 mi North 17.3 mph 24.2 mph 0.01 in Rain Light Rain
12:53 AM 41.0 °F 33.9 °F 39.0 °F 93% 30.03 in 10.0 mi NNW 12.7 mph - 0.01 in Rain Light Rain
1:53 AM 41.0 °F 33.9 °F 39.0 °F 93% 30.05 in 10.0 mi NNW 12.7 mph - 0.04 in Rain Light Rain
2:53 AM 41.0 °F 34.3 °F 39.0 °F 93% 30.06 in 10.0 mi NNW 11.5 mph 19.6 mph 0.01 in Rain Light Rain
3:53 AM 39.9 °F 35.1 °F 39.9 °F 100% 30.08 in 10.0 mi NNW 6.9 mph - 0.00 in   Mostly Cloudy
4:45 AM 42.1 °F 37.1 °F 41.0 °F 96% 30.05 in 10.0 mi NNW 8.1 mph - N/A   Overcast
4:53 AM 42.1 °F 36.1 °F 41.0 °F 96% 30.10 in 10.0 mi NW 10.4 mph - N/A   Overcast
5:49 AM 41.0 °F 34.7 °F 39.2 °F 93% 30.07 in 10.0 mi NW 10.4 mph - N/A   Mostly Cloudy
5:53 AM 41.0 °F 34.3 °F 39.9 °F 96% 30.12 in 10.0 mi NW 11.5 mph - N/A   Mostly Cloudy
6:02 AM 39.9 °F 33.4 °F 39.0 °F 97% 30.08 in 10.0 mi NW 10.4 mph - N/A   Mostly Cloudy
6:53 AM 39.0 °F 31.4 °F 37.9 °F 96% 30.15 in 10.0 mi NW 12.7 mph - N/A   Partly Cloudy
7:12 AM 39.0 °F 32.3 °F 37.9 °F 96% 30.11 in 10.0 mi NW 10.4 mph - N/A   Mostly Cloudy
7:53 AM 39.0 °F 31.8 °F 37.9 °F 96% 30.17 in 10.0 mi NW 11.5 mph - N/A   Overcast
8:53 AM 39.9 °F 34.5 °F 37.9 °F 93% 30.19 in 10.0 mi NNW 8.1 mph - N/A   Scattered Clouds
9:45 AM 41.0 °F 35.8 °F 37.9 °F 89% 30.16 in 10.0 mi NW 8.1 mph - N/A   Mostly Cloudy
9:53 AM 42.1 °F 37.7 °F 37.9 °F 85% 30.22 in 10.0 mi NW 6.9 mph - N/A   Mostly Cloudy
10:03 AM 41.0 °F 35.2 °F 37.9 °F 89% 30.17 in 10.0 mi NW 9.2 mph - N/A   Mostly Cloudy
10:24 AM 44.1 °F 40.8 °F 39.0 °F 82% 30.17 in 10.0 mi Variable 5.8 mph - N/A   Scattered Clouds
10:53 AM 45.0 °F 41.2 °F 39.0 °F 80% 30.22 in 10.0 mi WNW 6.9 mph - N/A   Partly Cloudy
11:53 AM 48.9 °F - 37.0 °F 64% 30.22 in 10.0 mi WNW 12.7 mph - N/A   Partly Cloudy
12:53 PM 48.9 °F - 34.0 °F 56% 30.23 in 10.0 mi West 12.7 mph - N/A   Clear
1:53 PM 50.0 °F - 34.0 °F 54% 30.22 in 10.0 mi West 12.7 mph - N/A   Partly Cloudy
2:53 PM 48.9 °F - 35.1 °F 59% 30.22 in 10.0 mi West 12.7 mph - N/A   Overcast
3:53 PM 46.9 °F - 37.9 °F 71% 30.22 in 10.0 mi WNW 9.2 mph - 0.00 in Rain Light Rain
4:53 PM 48.0 °F - 37.9 °F 68% 30.22 in 10.0 mi West 3.5 mph - 0.00 in   Overcast
5:53 PM 46.0 °F 44.8 °F 42.1 °F 86% 30.22 in 10.0 mi SSW 3.5 mph - N/A   Overcast
6:53 PM 43.0 °F 41.3 °F 39.9 °F 89% 30.22 in 10.0 mi SSE 3.5 mph - N/A   Overcast
7:53 PM 42.1 °F - 39.9 °F 92% 30.23 in 10.0 mi Calm Calm - N/A   Overcast
8:53 PM 44.1 °F 42.5 °F 39.9 °F 85% 30.24 in 10.0 mi WSW 3.5 mph - N/A   Overcast
9:53 PM 44.1 °F 41.5 °F 41.0 °F 89% 30.24 in 10.0 mi WSW 4.6 mph - N/A   Overcast
10:53 PM 42.1 °F - 39.9 °F 92% 30.24 in 10.0 mi Calm Calm - N/A   Overcast
11:53 PM 39.9 °F - 37.9 °F 93% 30.24 in 10.0 mi Calm Calm - N/A   Partly Cloudy